Tracking 28790 objects as of 19-Apr-2024
HD Live streaming from Space Station
objects crossing your sky now

FENGYUN 1C DEB

Track FENGYUN 1C DEB now!
10-day predictions


NORAD ID: 31254
Int'l Code: 1999-025BML
Perigee: 675.7 km
Apogee: 903.6 km
Inclination: 98.5 °
Period: 100.5 minutes
Semi major axis: 7160 km
RCS: 0.0099 m2 (small)
Launch date: May 10, 1999
Source: People's Republic of China (PRC)
Launch site: Taiyaun Space Center, China (TSC)

Note: This is SATELLITE DEBRIS
Your satellite tracking list
Your tracking list is empty




NASA's NSSDC Master Catalog

Two Line Element Set (TLE):
1 31254U 99025BML 24104.37415689  .00001682  00000-0  55173-3 0  9995
2 31254  98.5402 157.1653 0159136 209.1402 212.7226 14.32765299888291
Source of the keplerian elements: AFSPC